FLOCK 4G 4

导读

FLOCK 4G 4是美国行星实验室(Planet)研发的一颗商业遥感卫星,属于“鸽群(Flock)”系列超级鸽子(SuperDove)星座成员,于2025年1月14日成功发射。该卫星延续了鸽群星座小卫星、高重访的设计特点,配备多光谱成像设备,可提供高频率全球对地观测数据,服务于农业监测、自然资源管理、城市规划等多个领域,补充了现有星座的观测能力。

基本信息
目录编号:
62659
目录名称:
FLOCK 4G 4
国际标识:
2025-009BC
轨道中心:
EARTH
卫星名称:
FLOCK 4G 4
卫星全名:
FLOCK 4G 4
卫星状态:
在轨 (已飞行598 天)
发射日期:
2025-01-14 UTC
国别 :
美国 (US)
星等 :
--
轨道信息
数据来源 国际轨道数据
星历时间: 2026-09-02T12:35:40+0800
1天前
查看轨道信息
半长轴: 6837.979km
偏心率: 0.0003481
轨道倾角: 97.389°
近地点辐角 58.639°
升交点赤经 326.451°
平近点角 301.519°
近地点: 457.461km
远地点: 462.223km
周期: 93.789分钟
每日圈数: 15.353633
详细信息
使用方式:
暂无
2D轨道图
3D轨道图
轨道高度分析图
轨道倾角分析图
轨道综合分析图
查看轨道综合分析图
交会数据列表
事件ID 空间交会对象 最接近时刻(TCA) 交会距离 交会风险概率(CRP) 交会风险指数(CRI) 操作
CDM_260830-204906-265906-661722
2026-08-30T
20:49:58+0000
0.606 km
远距离
1.053602E-4 高风险 0.75
CDM_260904-053705-927006-265923
2026-09-04T
05:37:43+0000
1.016 km
极远距离
2.21106E-5 中风险 0.62
CDM_260904-233706-265906-994721
2026-09-04T
23:37:32+0000
1.346 km
极远距离
7.46385E-6 低风险 0.52
CDM_260830-183105-209406-265923
2026-08-30T
18:31:23+0000
1.325 km
极远距离
6.914321E-6 低风险 0.52
CDM_260903-092806-265906-584222
2026-09-03T
09:28:17+0000
1.281 km
极远距离
6.083487E-6 低风险 0.51
CDM_260904-141305-927006-265922
2026-09-04T
14:13:55+0000
1.801 km
极远距离
3.287503E-6 低风险 0.45
CDM_260831-001006-265906-541321
2026-08-31T
00:10:10+0000
2.321 km
极远距离
2.023242E-6 低风险 0.41
CDM_260904-124005-927006-265923
2026-09-04T
12:40:04+0000
2.215 km
极远距离
1.954217E-6 低风险 0.41
CDM_260903-153405-258606-265922
2026-09-03T
15:34:12+0000
2.202 km
极远距离
1.742108E-6 低风险 0.4
CDM_260831-005706-265906-541321
2026-08-31T
00:57:06+0000
2.846 km
极远距离
1.429861E-6 低风险 0.38